UAL1621 KPWM-KEWR

Flight info

Callsign UAL1621
Flight time 1h 1m
Altitude 34000
Route HSKEL3 HANAA FLOSI4
Aircraft B739/M-SDE2E3FGHIRWXY/LB1

Departure

Time 2026-04-20 21:42
Airport Portland International Jetport (KPWM)

Arrival

Time 2026-04-20 22:43
Airport Newark Liberty International Airport (KEWR)
Time Latitude Longitude Altitude Speed Heading
2026-04-20 21:31 43.64725 -70.31306 78 ft 0 kts 31°
2026-04-20 21:33 43.64711 -70.31318 79 ft 3 kts 31°
2026-04-20 21:34 43.64695 -70.31331 79 ft 3 kts 31°
2026-04-20 21:34 43.64679 -70.31344 78 ft 3 kts 31°
2026-04-20 21:34 43.64664 -70.31358 75 ft 3 kts 31°
2026-04-20 21:34 43.64648 -70.31371 79 ft 3 kts 31°
2026-04-20 21:35 43.64635 -70.31381 75 ft 0 kts 31°
2026-04-20 21:35 43.64636 -70.31381 75 ft 0 kts 34°
2026-04-20 21:36 43.64636 -70.31380 75 ft 0 kts 39°
2026-04-20 21:36 43.64636 -70.31375 75 ft 1 kts 72°
2026-04-20 21:36 43.64627 -70.31319 78 ft 13 kts 102°
2026-04-20 21:37 43.64602 -70.31137 57 ft 22 kts 99°
2026-04-20 21:37 43.64584 -70.30923 59 ft 22 kts 95°
2026-04-20 21:37 43.64569 -70.30732 52 ft 12 kts 112°
2026-04-20 21:37 43.64549 -70.30706 51 ft 0 kts 164°
2026-04-20 21:38 43.64542 -70.30704 54 ft 2 kts 164°
2026-04-20 21:38 43.64504 -70.30692 55 ft 10 kts 171°
2026-04-20 21:38 43.64391 -70.30687 56 ft 21 kts 178°
2026-04-20 21:38 43.64243 -70.30674 59 ft 15 kts 157°
2026-04-20 21:39 43.64225 -70.30629 56 ft 5 kts 98°
2026-04-20 21:39 43.64205 -70.30517 58 ft 20 kts 105°
2026-04-20 21:39 43.64129 -70.30310 59 ft 27 kts 148°
2026-04-20 21:39 43.63982 -70.30242 64 ft 18 kts 162°
2026-04-20 21:40 43.63894 -70.30203 76 ft 9 kts 160°
2026-04-20 21:40 43.63860 -70.30178 83 ft 1 kts 144°
2026-04-20 21:40 43.63849 -70.30155 85 ft 7 kts 116°
2026-04-20 21:40 43.63855 -70.30086 87 ft 3 kts 40°
2026-04-20 21:41 43.63883 -70.30087 84 ft 0 kts 347°
2026-04-20 21:41 43.63927 -70.30102 67 ft 28 kts 345°
2026-04-20 21:41 43.64365 -70.30283 53 ft 98 kts 343°
2026-04-20 21:41 43.65114 -70.30581 164 ft 120 kts 343°
2026-04-20 21:42 43.65918 -70.30908 470 ft 120 kts 342°
2026-04-20 21:42 43.66703 -70.31482 674 ft 147 kts 301°
2026-04-20 21:42 43.66996 -70.33016 913 ft 179 kts 279°
2026-04-20 21:42 43.67113 -70.34858 1344 ft 203 kts 276°
2026-04-20 21:43 43.67196 -70.36904 1790 ft 226 kts 276°
2026-04-20 21:43 43.67284 -70.39193 2245 ft 248 kts 275°
2026-04-20 21:43 43.67375 -70.41597 2934 ft 255 kts 276°
2026-04-20 21:43 43.67451 -70.43923 3754 ft 232 kts 276°
2026-04-20 21:44 43.67521 -70.46147 4619 ft 230 kts 275°
2026-04-20 21:44 43.67601 -70.48339 5461 ft 229 kts 275°
2026-04-20 21:44 43.67694 -70.50569 6084 ft 237 kts 276°
2026-04-20 21:44 43.67804 -70.52832 6200 ft 235 kts 276°
2026-04-20 21:45 43.67906 -70.55037 6200 ft 234 kts 276°
2026-04-20 21:45 43.68012 -70.57292 6228 ft 236 kts 276°
2026-04-20 21:45 43.68149 -70.59524 6682 ft 235 kts 282°
2026-04-20 21:45 43.68550 -70.61645 7255 ft 228 kts 285°
2026-04-20 21:46 43.68984 -70.63803 7916 ft 234 kts 284°
2026-04-20 21:46 43.69411 -70.65955 8589 ft 237 kts 284°
2026-04-20 21:46 43.69844 -70.68150 9298 ft 237 kts 283°
2026-04-20 21:46 43.70281 -70.70363 9997 ft 239 kts 283°
2026-04-20 21:47 43.70719 -70.72589 10636 ft 245 kts 283°
2026-04-20 21:47 43.71166 -70.74852 11535 ft 240 kts 282°
2026-04-20 21:47 43.71598 -70.77039 12433 ft 234 kts 282°
2026-04-20 21:47 43.72012 -70.79195 13385 ft 227 kts 278°
2026-04-20 21:48 43.72024 -70.81302 14326 ft 213 kts 257°
2026-04-20 21:48 43.71581 -70.83145 15299 ft 195 kts 249°
2026-04-20 21:48 43.71103 -70.84810 16284 ft 174 kts 249°
2026-04-20 21:48 43.70685 -70.86269 17111 ft 158 kts 250°
2026-04-20 21:49 43.70270 -70.87722 17352 ft 170 kts 249°
2026-04-20 21:49 43.69795 -70.89383 17377 ft 200 kts 249°
2026-04-20 21:49 43.69244 -70.91297 17556 ft 223 kts 249°
2026-04-20 21:49 43.68655 -70.93341 17913 ft 239 kts 249°
2026-04-20 21:50 43.68018 -70.95552 18285 ft 255 kts 249°
2026-04-20 21:50 43.67346 -70.97885 18630 ft 271 kts 249°
2026-04-20 21:50 43.66621 -71.00397 18950 ft 287 kts 249°
2026-04-20 21:50 43.65864 -71.03019 19260 ft 303 kts 249°
2026-04-20 21:51 43.65157 -71.05807 19574 ft 317 kts 256°
2026-04-20 21:51 43.64618 -71.08831 19731 ft 337 kts 256°
2026-04-20 21:51 43.64048 -71.12095 19799 ft 359 kts 256°
2026-04-20 21:51 43.63431 -71.15539 20024 ft 375 kts 256°
2026-04-20 21:52 43.62798 -71.19021 20704 ft 379 kts 256°
2026-04-20 21:52 43.62155 -71.22576 21388 ft 382 kts 256°
2026-04-20 21:52 43.61510 -71.26160 22085 ft 386 kts 256°
2026-04-20 21:52 43.60859 -71.29760 22792 ft 388 kts 256°
2026-04-20 21:53 43.60200 -71.33390 23517 ft 391 kts 256°
2026-04-20 21:53 43.59537 -71.37033 24162 ft 393 kts 256°
2026-04-20 21:53 43.58871 -71.40691 24736 ft 394 kts 255°
2026-04-20 21:53 43.58201 -71.44363 25346 ft 396 kts 255°
2026-04-20 21:54 43.57528 -71.48045 25969 ft 397 kts 255°
2026-04-20 21:54 43.56851 -71.51736 26613 ft 398 kts 255°
2026-04-20 21:54 43.56172 -71.55436 27263 ft 398 kts 255°
2026-04-20 21:54 43.55491 -71.59136 27927 ft 398 kts 255°
2026-04-20 21:55 43.54809 -71.62841 28603 ft 398 kts 255°
2026-04-20 21:55 43.54126 -71.66537 29299 ft 398 kts 255°
2026-04-20 21:55 43.53452 -71.70178 30002 ft 397 kts 255°
2026-04-20 21:55 43.52769 -71.73861 30630 ft 396 kts 254°
2026-04-20 21:56 43.52088 -71.77529 31204 ft 395 kts 254°
2026-04-20 21:56 43.51408 -71.81185 31788 ft 393 kts 254°
2026-04-20 21:56 43.50728 -71.84827 32394 ft 392 kts 253°
2026-04-20 21:56 43.50050 -71.88459 33011 ft 391 kts 253°
2026-04-20 21:57 43.49373 -71.92072 33672 ft 389 kts 254°
2026-04-20 21:57 43.48696 -71.95680 34156 ft 391 kts 254°
2026-04-20 21:57 43.48004 -71.99362 34217 ft 404 kts 254°
2026-04-20 21:57 43.47286 -72.03171 34225 ft 418 kts 254°
2026-04-20 21:58 43.46545 -72.07100 34240 ft 431 kts 254°
2026-04-20 21:58 43.45778 -72.11161 34236 ft 445 kts 254°
2026-04-20 21:58 43.44987 -72.15336 34244 ft 458 kts 254°
2026-04-20 21:59 43.43348 -72.23960 34240 ft 468 kts 254°
2026-04-20 21:59 43.41696 -72.32611 34241 ft 467 kts 254°
2026-04-20 22:00 43.40037 -72.41256 34239 ft 467 kts 254°
2026-04-20 22:00 43.38423 -72.49917 34239 ft 468 kts 256°
2026-04-20 22:01 43.37009 -72.58649 34231 ft 468 kts 256°
2026-04-20 22:01 43.35576 -72.67403 34229 ft 471 kts 257°
2026-04-20 22:02 43.34146 -72.76128 34251 ft 471 kts 257°
2026-04-20 22:02 43.32696 -72.84906 34246 ft 471 kts 256°
2026-04-20 22:03 43.31243 -72.93673 34249 ft 470 kts 256°
2026-04-20 22:03 43.29780 -73.02442 34243 ft 471 kts 257°
2026-04-20 22:04 43.28311 -73.11216 34251 ft 472 kts 257°
2026-04-20 22:04 43.26842 -73.19936 34257 ft 472 kts 257°
2026-04-20 22:05 43.25356 -73.28717 34258 ft 472 kts 256°
2026-04-20 22:05 43.23870 -73.37457 34270 ft 469 kts 257°
2026-04-20 22:06 43.22386 -73.46134 34270 ft 469 kts 257°
2026-04-20 22:06 43.20890 -73.54850 34260 ft 469 kts 257°
2026-04-20 22:07 43.18415 -73.63058 34291 ft 474 kts 230°
2026-04-20 22:07 43.15860 -73.65927 34297 ft 482 kts 212°
2026-04-20 22:07 43.12688 -73.67531 34281 ft 492 kts 196°
2026-04-20 22:08 43.05852 -73.68771 34274 ft 497 kts 189°
2026-04-20 22:08 42.99043 -73.69919 34267 ft 494 kts 194°
2026-04-20 22:09 42.92492 -73.72574 34268 ft 489 kts 204°
2026-04-20 22:09 42.86081 -73.75706 34265 ft 491 kts 200°
2026-04-20 22:10 42.79503 -73.78222 34277 ft 490 kts 201°
2026-04-20 22:10 42.73051 -73.81136 34280 ft 489 kts 202°
2026-04-20 22:11 42.66543 -73.83965 34267 ft 490 kts 201°
2026-04-20 22:11 42.60119 -73.86889 34264 ft 490 kts 202°
2026-04-20 22:12 42.53642 -73.89770 34262 ft 490 kts 201°
2026-04-20 22:12 42.47162 -73.92665 34263 ft 489 kts 202°
2026-04-20 22:13 42.40676 -73.95556 34263 ft 490 kts 202°
2026-04-20 22:13 42.34240 -73.98412 34263 ft 490 kts 202°
2026-04-20 22:14 42.27765 -74.01287 34257 ft 491 kts 202°
2026-04-20 22:14 42.21265 -74.04160 34256 ft 492 kts 202°
2026-04-20 22:15 42.15814 -74.06570 34255 ft 492 kts 202°
2026-04-20 22:15 42.09311 -74.09437 34261 ft 492 kts 202°
2026-04-20 22:16 42.02847 -74.12281 34256 ft 492 kts 202°
2026-04-20 22:16 41.96338 -74.15133 34256 ft 492 kts 202°
2026-04-20 22:17 41.89833 -74.17980 34250 ft 491 kts 202°
2026-04-20 22:17 41.83330 -74.20819 34249 ft 492 kts 202°
2026-04-20 22:18 41.76823 -74.23658 34260 ft 492 kts 202°
2026-04-20 22:18 41.70311 -74.26491 34260 ft 492 kts 202°
2026-04-20 22:19 41.63796 -74.29321 34261 ft 492 kts 202°
2026-04-20 22:19 41.57289 -74.32139 34262 ft 492 kts 202°
2026-04-20 22:20 41.50779 -74.34954 34262 ft 492 kts 202°
2026-04-20 22:20 41.44250 -74.37773 34272 ft 496 kts 202°
2026-04-20 22:21 41.37688 -74.40594 34242 ft 490 kts 202°
2026-04-20 22:21 41.34472 -74.41974 33546 ft 482 kts 202°
2026-04-20 22:21 41.31363 -74.43306 32653 ft 456 kts 202°
2026-04-20 22:21 41.28414 -74.44570 31703 ft 435 kts 202°
2026-04-20 22:22 41.25664 -74.45750 30786 ft 411 kts 202°
2026-04-20 22:22 41.22974 -74.46903 29757 ft 391 kts 202°
2026-04-20 22:22 41.20441 -74.47988 28675 ft 374 kts 202°
2026-04-20 22:22 41.18041 -74.49014 27667 ft 361 kts 202°
2026-04-20 22:23 41.15658 -74.50033 26668 ft 349 kts 202°
2026-04-20 22:23 41.13411 -74.50992 25715 ft 339 kts 202°
2026-04-20 22:23 41.11194 -74.51938 24817 ft 331 kts 202°
2026-04-20 22:23 41.09028 -74.52861 23928 ft 324 kts 201°
2026-04-20 22:24 41.06892 -74.53727 22910 ft 318 kts 195°
2026-04-20 22:24 41.04706 -74.54072 21824 ft 316 kts 188°
2026-04-20 22:24 41.02517 -74.54245 20750 ft 314 kts 187°
2026-04-20 22:24 41.00356 -74.54407 19799 ft 299 kts 187°
2026-04-20 22:25 40.98389 -74.54584 18858 ft 270 kts 188°
2026-04-20 22:25 40.96575 -74.54765 17810 ft 254 kts 189°
2026-04-20 22:25 40.94845 -74.54932 16728 ft 245 kts 189°
2026-04-20 22:25 40.93169 -74.55086 15673 ft 238 kts 189°
2026-04-20 22:26 40.91538 -74.55235 14654 ft 232 kts 189°
2026-04-20 22:26 40.89950 -74.55381 13396 ft 224 kts 189°
2026-04-20 22:26 40.88429 -74.55520 12065 ft 216 kts 189°
2026-04-20 22:27 40.85570 -74.55784 9498 ft 197 kts 188°
2026-04-20 22:27 40.84212 -74.55911 8302 ft 192 kts 188°
2026-04-20 22:27 40.82980 -74.56008 7960 ft 159 kts 185°
2026-04-20 22:27 40.81955 -74.55935 7993 ft 144 kts 184°
2026-04-20 22:28 40.80877 -74.55906 7753 ft 165 kts 183°
2026-04-20 22:28 40.79715 -74.55847 7476 ft 170 kts 182°
2026-04-20 22:28 40.78514 -74.55781 7205 ft 169 kts 181°
2026-04-20 22:28 40.77315 -74.55716 6922 ft 175 kts 181°
2026-04-20 22:29 40.76122 -74.55650 6637 ft 172 kts 181°
2026-04-20 22:29 40.74938 -74.55586 6342 ft 170 kts 181°
2026-04-20 22:29 40.73734 -74.55523 6059 ft 173 kts 181°
2026-04-20 22:29 40.72569 -74.55459 5979 ft 166 kts 181°
2026-04-20 22:30 40.71389 -74.55399 5902 ft 170 kts 181°
2026-04-20 22:30 40.70208 -74.55336 5631 ft 172 kts 181°
2026-04-20 22:30 40.69029 -74.55272 5134 ft 169 kts 182°
2026-04-20 22:30 40.67857 -74.55211 4563 ft 167 kts 180°
2026-04-20 22:31 40.66709 -74.55148 4073 ft 161 kts 181°
2026-04-20 22:31 40.65605 -74.55088 3995 ft 162 kts 181°
2026-04-20 22:31 40.64546 -74.54580 3986 ft 162 kts 136°
2026-04-20 22:31 40.63888 -74.53386 3966 ft 166 kts 130°
2026-04-20 22:32 40.62914 -74.52638 3997 ft 165 kts 156°
2026-04-20 22:32 40.61878 -74.52037 3993 ft 161 kts 157°
2026-04-20 22:32 40.60818 -74.51438 3995 ft 167 kts 158°
2026-04-20 22:32 40.59759 -74.50831 3991 ft 168 kts 158°
2026-04-20 22:33 40.58686 -74.50222 3993 ft 168 kts 158°
2026-04-20 22:33 40.57602 -74.49604 3985 ft 169 kts 158°
2026-04-20 22:33 40.56534 -74.48990 3979 ft 163 kts 157°
2026-04-20 22:33 40.55513 -74.48322 3950 ft 165 kts 138°
2026-04-20 22:34 40.54849 -74.47107 3612 ft 164 kts 118°
2026-04-20 22:34 40.54267 -74.45816 3270 ft 164 kts 117°
2026-04-20 22:34 40.53681 -74.44516 2991 ft 161 kts 117°
2026-04-20 22:34 40.53107 -74.43255 3000 ft 162 kts 118°
2026-04-20 22:35 40.52535 -74.41986 2996 ft 161 kts 117°
2026-04-20 22:35 40.51964 -74.40715 2991 ft 159 kts 117°
2026-04-20 22:35 40.51396 -74.39450 2993 ft 163 kts 117°
2026-04-20 22:35 40.50825 -74.38187 2994 ft 164 kts 118°
2026-04-20 22:36 40.50261 -74.36914 2995 ft 162 kts 118°
2026-04-20 22:36 40.49689 -74.35611 3010 ft 168 kts 117°
2026-04-20 22:36 40.49089 -74.34262 3002 ft 172 kts 117°
2026-04-20 22:36 40.48491 -74.32900 3003 ft 173 kts 117°
2026-04-20 22:37 40.47889 -74.31523 3001 ft 175 kts 117°
2026-04-20 22:37 40.47284 -74.30139 3001 ft 175 kts 118°
2026-04-20 22:37 40.47004 -74.28670 2986 ft 163 kts 71°
2026-04-20 22:37 40.47680 -74.27661 2984 ft 145 kts 11°
2026-04-20 22:38 40.48656 -74.27534 2993 ft 142 kts 358°
2026-04-20 22:38 40.49646 -74.27508 2979 ft 143 kts 358°
2026-04-20 22:38 40.50643 -74.27481 2962 ft 144 kts 357°
2026-04-20 22:38 40.51644 -74.27258 2910 ft 154 kts 17°
2026-04-20 22:39 40.52665 -74.26766 2796 ft 157 kts 13°
2026-04-20 22:39 40.53680 -74.26251 2644 ft 159 kts 22°
2026-04-20 22:39 40.54656 -74.25534 2501 ft 162 kts 24°
2026-04-20 22:39 40.55627 -74.24803 2350 ft 164 kts 24°
2026-04-20 22:40 40.56612 -74.24063 2199 ft 160 kts 23°
2026-04-20 22:40 40.57639 -74.23460 2052 ft 161 kts 18°
2026-04-20 22:40 40.58670 -74.22899 1899 ft 164 kts 18°
2026-04-20 22:40 40.59700 -74.22333 1772 ft 159 kts 19°
2026-04-20 22:41 40.60710 -74.21698 1642 ft 163 kts 21°
2026-04-20 22:41 40.61736 -74.21101 1380 ft 164 kts 19°
2026-04-20 22:41 40.62764 -74.20510 1171 ft 160 kts 20°
2026-04-20 22:41 40.63787 -74.19880 899 ft 161 kts 21°
2026-04-20 22:42 40.64776 -74.19272 655 ft 160 kts 23°
2026-04-20 22:42 40.65727 -74.18668 401 ft 142 kts 21°
2026-04-20 22:42 40.66626 -74.18101 284 ft 140 kts 15°
2026-04-20 22:42 40.67521 -74.17556 102 ft 139 kts 19°
2026-04-20 22:43 40.68341 -74.17041 29 ft 113 kts 18°
2026-04-20 22:43 40.68885 -74.16723 21 ft 54 kts 20°
2026-04-20 22:43 40.69168 -74.16602 29 ft 33 kts
2026-04-20 22:43 40.69284 -74.16594 26 ft 7 kts 358°
2026-04-20 22:44 40.69364 -74.16610 27 ft 16 kts 339°
2026-04-20 22:44 40.69438 -74.16721 23 ft 18 kts 294°
2026-04-20 22:44 40.69481 -74.16836 25 ft 8 kts 294°
2026-04-20 22:44 40.69521 -74.16956 22 ft 15 kts 288°
2026-04-20 22:45 40.69516 -74.17063 20 ft 4 kts 227°
2026-04-20 22:45 40.69470 -74.17092 20 ft 12 kts 212°
2026-04-20 22:45 40.69417 -74.17127 18 ft 3 kts 181°
2026-04-20 22:45 40.69393 -74.17127 18 ft 0 kts 197°
2026-04-20 22:46 40.69385 -74.17143 17 ft 1 kts 259°
2026-04-20 22:46 40.69387 -74.17171 17 ft 7 kts 280°
2026-04-20 22:46 40.69387 -74.17174 17 ft 0 kts 280°